[[{"header":{"parameterUnit":"m.s-1","parameterCategory":1,"la1":30.2991,"la2":30.254,"lo1":-89.0895,"lo2":-89.0444,"dy":0.0017,"dx":0.0017,"nx":28,"ny":28,"refTime":"2025-01-12T09:00:00:Z","depth":0,"parameterNumber":2,"parameterNumberName":"U-component_of_WINDS"},"data":[0,0,0,0,0,0,0,0,0,0,0,0,0,0,0,0,0,0,0,0,0,0,0,0,0,0,0,0,0,0,0,0,0,0,0,0,0,0,0,0,0,0,0,0,0,0,0,0,0,0,0,0,0,0,0,0,0,0,-5.4206,-5.4209,0,-5.4468,-5.4471,-5.4474,-5.4424,-5.4419,-5.4414,-5.441,-5.4683,-5.4695,-5.4706,0,0,0,0,0,0,0,0,0,0,0,0,0,-5.3667,-5.3677,-5.4206,-5.4209,-5.4212,-5.4467,-5.4471,-5.4475,-5.4425,-5.4419,-5.4413,-5.4408,-5.4679,-5.4693,-5.4707,0,0,0,0,0,0,0,0,0,0,0,0,0,-5.3913,-5.3681,-5.4205,-5.4218,-5.4222,-5.4467,-5.4471,-5.4476,-5.4426,-5.4419,-5.4412,-5.4405,-5.4675,-5.4692,-5.4709,-5.4959,0,0,-5.4763,-5.477,0,0,0,0,0,0,0,0,-5.3899,-5.3932,-5.4213,-5.4218,-5.4222,-5.4406,-5.4381,-5.4638,-5.4428,-5.4349,-5.441,-5.4402,-5.4597,-5.462,-5.4685,-5.4972,-5.4984,-5.4764,-5.4775,-5.4782,-5.4787,0,0,0,0,0,0,0,-5.3882,-5.3921,-5.4309,-5.4217,-5.4223,-5.4212,-5.4239,-5.443,-5.451,-5.4355,-5.4352,-5.4383,-5.4598,-5.4669,-5.4691,-5.4988,-5.4764,-5.4779,-5.479,-5.4797,-5.5496,-5.5504,0,0,0,0,0,0,-5.386,-5.3907,-5.4301,-5.4317,-5.4039,-5.4228,-5.4258,-5.4354,-5.4507,-5.4524,-5.4389,-5.438,-5.4642,-5.4671,-5.4701,-5.5007,-5.4782,-5.4799,-5.4809,-5.5488,-5.5498,-5.5506,0,0,0,0,0,0,-5.3848,-5.3895,-5.4291,-5.4112,-5.4161,-5.4245,-5.4353,-5.4363,-5.4433,-5.4533,-5.4547,-5.4446,-5.4638,-5.4676,-5.4896,-5.5015,-5.4806,-5.4822,-5.5478,-5.5491,-5.5502,-5.5618,0,0,0,0,0,0,-5.3833,-5.3892,-5.3986,-5.4114,-5.4171,-5.448,-5.436,-5.4373,-5.4463,-5.4454,-5.459,-5.4606,-5.4635,-5.487,-5.4913,-5.5035,-5.4836,-5.5468,-5.5484,-5.5498,-5.5604,-5.5633,-5.5657,0,0,0,0,0,-5.3814,-5.4009,-5.3991,-5.4039,-5.4291,-5.4487,-5.452,-5.4547,-5.4473,-5.457,-5.4634,-5.4602,-5.4994,-5.4893,-5.4941,-5.5071,-5.5461,-5.548,-5.5497,-5.5592,-5.5627,-5.5656,0,0,0,0,0,0,-5.3894,-5.4026,-5.4008,-5.4249,-5.4357,-5.4478,-5.4601,-5.4583,-5.4715,-5.4701,-5.4731,-5.4763,-5.4987,-5.505,-5.4934,-5.5322,-5.5217,-5.5246,-5.5273,-5.5307,-5.5333,-5.5315,-5.4851,0,0,0,0,0,-5.394,-5.4087,-5.4194,-5.4397,-5.4452,-5.4517,-5.4604,-5.4616,-5.4729,-5.4775,-5.4855,-5.4969,-5.5117,-5.5215,-5.5357,-5.5612,-5.5643,-5.5725,-5.5751,-5.5772,-5.5798,-5.5941,-5.5979,-5.5566,-5.5566,-5.5565,0,0,-5.4036,-5.4126,-5.4217,-5.4415,-5.45,-5.4654,-5.4556,-5.4722,-5.4837,-5.4801,-5.5014,-5.5077,-5.5205,-5.5444,-5.5553,-5.5503,-5.5919,-5.5796,-5.5812,-5.5826,-5.5963,-5.6002,-5.6037,-5.5578,-5.5576,-5.5574,0,0,-5.429,-5.4372,-5.4551,-5.4638,-5.4768,-5.481,-5.4853,-5.4977,-5.5018,-5.5231,-5.5208,-5.5345,-5.56,-5.5694,-5.5775,-5.6065,-5.6042,-5.6111,-5.6251,-5.6389,-5.6422,-5.6451,-5.6558,-5.6596,-5.6135,-5.6135,-5.6135,0,-5.4394,-5.4623,-5.4646,-5.4815,-5.4905,-5.4877,-5.5061,-5.5144,-5.5314,-5.5378,-5.5319,-5.564,-5.5724,-5.5986,-5.6057,-5.6122,-5.6175,-5.6097,-5.6415,-5.6444,-5.6472,-5.6575,-5.6614,-5.6143,-5.6142,-5.6141,-5.6141,0,-5.4746,-5.4905,-5.5035,-5.5199,-5.5303,-5.5478,-5.553,-5.5632,-5.5635,-5.5684,-5.5903,-5.6003,-5.6166,-5.6229,-5.6233,-5.6493,-5.6458,-5.6407,-5.6303,-5.6519,-5.6616,-5.6655,-5.6154,-5.6151,-5.6149,-5.6147,0,0,-5.506,-5.5235,-5.5282,-5.5358,-5.5499,-5.5624,-5.5798,-5.5957,-5.6046,-5.6164,-5.6314,-5.653,-5.6484,-5.6576,-5.6591,-5.6712,-5.694,-5.6647,-5.665,-5.6701,-5.7236,-5.7276,-5.7321,-5.6924,-5.6931,-5.6937,-5.7227,0,-5.533,-5.5638,-5.5664,-5.5942,-5.6092,-5.6068,-5.6221,-5.6325,-5.6376,-5.6511,-5.6567,-5.6722,-5.6647,-5.6703,-5.6822,-5.6887,-5.7049,-5.6866,-5.7067,-5.7074,-5.7039,-5.7371,-5.7414,-5.7682,-5.7264,-5.7271,-5.7275,0,-5.5687,-5.5816,-5.6108,-5.623,-5.6294,-5.6431,-5.658,-5.6708,-5.6827,-5.6855,-5.6958,-5.6957,-5.714,-5.7026,-5.728,-5.7156,-5.7239,-5.7284,-5.7295,-5.7318,-5.719,-5.7407,-5.7768,-5.781,-5.7335,-5.733,-5.7326,0,-5.5891,-5.6137,-5.6345,-5.641,-5.6556,-5.6654,-5.672,-5.6831,-5.6925,-5.7055,-5.7118,-5.7267,-5.7351,-5.7468,-5.7508,-5.7421,-5.7762,-5.7651,-5.7794,-5.7793,-5.7869,-5.7865,-5.8253,-5.7917,-5.7916,-5.7916,-5.7915,0,-5.6193,-5.6374,-5.6439,-5.6567,-5.677,-5.6798,-5.6999,-5.706,-5.7159,-5.7301,-5.7288,-5.7422,-5.7465,-5.7606,-5.7639,-5.7846,-5.7883,-5.7913,-5.7921,-5.7917,-5.7914,-5.7975,-5.7958,-5.7926,-5.7924,-5.7922,-5.792,0,-5.6456,-5.6507,-5.6732,-5.6853,-5.6887,-5.7032,-5.7136,-5.7261,-5.7308,-5.7487,-5.7531,-5.7607,-5.7773,-5.7824,-5.8024,-5.8046,-5.829,-5.8279,-5.825,-5.8252,-5.8393,-5.8381,-5.8837,-5.89,-5.8519,-5.8523,-5.8526,0,-5.6647,-5.6786,-5.6921,-5.7014,-5.7084,-5.7234,-5.733,-5.7364,-5.7465,-5.7611,-5.7719,-5.7883,-5.8016,-5.8282,-5.8357,-5.8511,-5.8505,-5.8655,-5.8529,-5.8521,-5.8512,-5.8505,-5.8521,-5.868,-5.8684,-5.8687,-5.8689,0,-5.6981,-5.7,-5.7138,-5.7287,-5.7401,-5.752,-5.7634,-5.7711,-5.7762,-5.7876,-5.8045,-5.8148,-5.8353,-5.8517,-5.8673,-5.8743,-5.8727,-5.8728,-5.877,-5.8769,-5.8749,-5.8766,-5.8319,-5.8718,-5.8715,-5.8713,-5.8712,-5.8711,-5.7217,-5.734,-5.7455,-5.7611,-5.77,-5.7807,-5.7931,-5.7994,-5.8135,-5.8304,-5.8315,-5.8499,-5.8616,-5.8824,-5.8902,-5.9047,-5.9004,-5.9064,-5.908,-5.9095,-5.9109,-5.8722,-5.9075,-5.9075,-5.9074,-5.9073,-5.9073,0,-5.7554,-5.7626,-5.7769,-5.7929,-5.8052,-5.8023,-5.8148,-5.8254,-5.8415,-5.8525,-5.8656,-5.8852,-5.9011,-5.9098,-5.9257,-5.9358,-5.9355,-5.9399,-5.9394,-5.9411,-5.9136,-5.9086,-5.9399,-5.9399,-5.9399,-5.9399,-5.9399,-5.9399,-5.7744,-5.7952,-5.7984,-5.8237,-5.8309,-5.8488,-5.8563,-5.8663,-5.875,-5.8969,-5.9101,-5.9156,-5.9258,-5.9424,-5.957,-5.9592,-5.9653,-5.9703,-5.972,-5.9463,-5.943,-5.9398,-5.9351,-5.9715,-5.9715,-5.9984,-5.9986,-5.9988]},{"header":{"parameterUnit":"m.s-1","parameterCategory":1,"la1":30.2991,"la2":30.254,"lo1":-89.0895,"lo2":-89.0444,"dy":0.0017,"dx":0.0017,"nx":28,"ny":28,"refTime":"2025-01-12T09:00:00:Z","depth":0,"parameterNumber":3,"parameterNumberName":"V-component_of_WINDS"},"data":[0,0,0,0,0,0,0,0,0,0,0,0,0,0,0,0,0,0,0,0,0,0,0,0,0,0,0,0,0,0,0,0,0,0,0,0,0,0,0,0,0,0,0,0,0,0,0,0,0,0,0,0,0,0,0,0,0,0,-6.2831,-6.2831,0,-6.2868,-6.2868,-6.2869,-6.2756,-6.2753,-6.2749,-6.2746,-6.2782,-6.2786,-6.279,0,0,0,0,0,0,0,0,0,0,0,0,0,-6.266,-6.2664,-6.2831,-6.2831,-6.2832,-6.2868,-6.2868,-6.2869,-6.2757,-6.2753,-6.2748,-6.2745,-6.278,-6.2785,-6.279,0,0,0,0,0,0,0,0,0,0,0,0,0,-6.2719,-6.2665,-6.2831,-6.278,-6.2776,-6.2868,-6.2868,-6.2869,-6.2758,-6.2752,-6.2747,-6.2743,-6.2779,-6.2785,-6.2791,-6.2932,0,0,-6.281,-6.2813,0,0,0,0,0,0,0,0,-6.2716,-6.2726,-6.2787,-6.2784,-6.278,-6.2802,-6.2821,-6.289,-6.2759,-6.2765,-6.2746,-6.274,-6.2793,-6.2797,-6.2815,-6.2934,-6.2935,-6.281,-6.2814,-6.2817,-6.2819,0,0,0,0,0,0,0,-6.2712,-6.2724,-6.2845,-6.2788,-6.2784,-6.2755,-6.2757,-6.2833,-6.2807,-6.2764,-6.2756,-6.2762,-6.2789,-6.281,-6.2815,-6.2936,-6.281,-6.2816,-6.282,-6.2822,-6.3171,-6.3176,0,0,0,0,0,0,-6.2715,-6.2721,-6.2844,-6.2846,-6.2735,-6.2762,-6.2765,-6.28,-6.2806,-6.2802,-6.2766,-6.2756,-6.2802,-6.2808,-6.2816,-6.2982,-6.2817,-6.2823,-6.2826,-6.3165,-6.3172,-6.3178,0,0,0,0,0,0,-6.2712,-6.2727,-6.2843,-6.2782,-6.2794,-6.277,-6.2811,-6.2803,-6.2824,-6.2808,-6.2802,-6.2792,-6.2798,-6.2807,-6.2904,-6.2981,-6.2825,-6.2831,-6.3159,-6.3167,-6.3175,-6.3314,0,0,0,0,0,0,-6.2707,-6.2727,-6.2781,-6.2784,-6.2798,-6.2932,-6.2815,-6.2808,-6.2835,-6.2823,-6.283,-6.2827,-6.2795,-6.2895,-6.291,-6.2987,-6.2836,-6.3152,-6.3162,-6.3172,-6.3303,-6.3326,-6.3346,0,0,0,0,0,-6.2702,-6.2819,-6.2784,-6.28,-6.2865,-6.2936,-6.2944,-6.2905,-6.2842,-6.2896,-6.2885,-6.2826,-6.297,-6.2906,-6.2922,-6.3002,-6.3147,-6.3159,-6.3171,-6.3293,-6.3322,-6.3346,0,0,0,0,0,0,-6.2825,-6.2818,-6.278,-6.2901,-6.292,-6.2917,-6.2984,-6.2937,-6.2974,-6.2961,-6.291,-6.2913,-6.3019,-6.3019,-6.2948,-6.3138,-6.3047,-6.3064,-6.3134,-6.3161,-6.3183,-6.3181,-6.2841,0,0,0,0,0,-6.2867,-6.2926,-6.2916,-6.3024,-6.3035,-6.3008,-6.3037,-6.3006,-6.3023,-6.303,-6.3027,-6.3045,-6.3094,-6.3127,-6.3172,-6.3301,-6.3301,-6.3364,-6.3386,-6.3404,-6.3419,-6.3487,-6.3515,-6.3219,-6.3219,-6.3218,0,0,-6.2953,-6.2956,-6.2996,-6.3048,-6.3059,-6.3121,-6.3016,-6.3085,-6.313,-6.304,-6.3132,-6.313,-6.3146,-6.326,-6.331,-6.3264,-6.35,-6.342,-6.3434,-6.344,-6.3503,-6.3531,-6.3556,-6.3227,-6.3226,-6.3224,0,0,-6.3141,-6.315,-6.3241,-6.3254,-6.3271,-6.3253,-6.3274,-6.3278,-6.3274,-6.3364,-6.3299,-6.335,-6.3436,-6.3451,-6.3469,-6.3662,-6.3609,-6.3677,-6.3792,-6.3859,-6.3883,-6.3903,-6.3972,-6.3997,-6.3692,-6.3692,-6.3693,0,-6.3246,-6.3337,-6.3293,-6.3367,-6.3391,-6.3314,-6.3404,-6.3419,-6.345,-6.3468,-6.3416,-6.3522,-6.3528,-6.3644,-6.3691,-6.3708,-6.3731,-6.3677,-6.3883,-6.3903,-6.3922,-6.3987,-6.4013,-6.3701,-6.37,-6.3699,-6.3698,0,-6.3464,-6.3528,-6.3599,-6.3632,-6.3664,-6.3746,-6.3714,-6.3751,-6.3717,-6.3703,-6.3796,-6.38,-6.3843,-6.3868,-6.3835,-6.3979,-6.395,-6.3892,-6.3799,-6.3959,-6.4019,-6.4044,-6.3712,-6.3709,-6.3707,-6.3705,0,0,-6.3733,-6.374,-6.3767,-6.3781,-6.3794,-6.3842,-6.392,-6.3963,-6.3996,-6.4019,-6.4083,-6.4157,-6.4103,-6.4124,-6.4091,-6.415,-6.4302,-6.4084,-6.4083,-6.4125,-6.4461,-6.4506,-6.4536,-6.4267,-6.4271,-6.4275,-6.446,0,-6.3919,-6.4054,-6.4016,-6.415,-6.4208,-6.4134,-6.4202,-6.4217,-6.4206,-6.4252,-6.4239,-6.4292,-6.4216,-6.4229,-6.4283,-6.4272,-6.4369,-6.4258,-6.4325,-6.4328,-6.4325,-6.4567,-6.4615,-6.479,-6.4483,-6.4487,-6.449,0,-6.4154,-6.4188,-6.4329,-6.4332,-6.4354,-6.4416,-6.4452,-6.4498,-6.4512,-6.45,-6.4524,-6.4478,-6.4554,-6.446,-6.4563,-6.4488,-6.4513,-6.4512,-6.4517,-6.4523,-6.442,-6.458,-6.4845,-6.4872,-6.4527,-6.4524,-6.4521,0,-6.4337,-6.4417,-6.4511,-6.4525,-6.4531,-6.4576,-6.458,-6.459,-6.4618,-6.4649,-6.4666,-6.4705,-6.4727,-6.4758,-6.4724,-6.4659,-6.4832,-6.4736,-6.4824,-6.4825,-6.4864,-6.4863,-6.5138,-6.4879,-6.4879,-6.4878,-6.4878,0,-6.4549,-6.4638,-6.4593,-6.4652,-6.4748,-6.4703,-6.48,-6.4796,-6.4805,-6.486,-6.4797,-6.485,-6.4802,-6.485,-6.4824,-6.4913,-6.4923,-6.4915,-6.4907,-6.4921,-6.4922,-6.4937,-6.4925,-6.4885,-6.4884,-6.4882,-6.4881,0,-6.477,-6.4744,-6.4842,-6.4839,-6.484,-6.4912,-6.4909,-6.4962,-6.4946,-6.5016,-6.503,-6.5005,-6.5058,-6.5027,-6.5081,-6.5063,-6.518,-6.5154,-6.5175,-6.5169,-6.5259,-6.5251,-6.5554,-6.5591,-6.5308,-6.5311,-6.5313,0,-6.4908,-6.4975,-6.4979,-6.5012,-6.5021,-6.5074,-6.5103,-6.506,-6.5092,-6.5113,-6.5163,-6.5211,-6.5248,-6.5336,-6.5322,-6.5363,-6.5339,-6.5442,-6.5345,-6.5357,-6.5341,-6.5339,-6.5345,-6.5463,-6.5466,-6.5469,-6.5471,0,-6.5155,-6.5139,-6.5182,-6.5222,-6.5258,-6.5286,-6.5309,-6.5339,-6.5297,-6.5335,-6.539,-6.5418,-6.5473,-6.5522,-6.5556,-6.5559,-6.5509,-6.5501,-6.5524,-6.554,-6.5549,-6.5546,-6.523,-6.5495,-6.5492,-6.5491,-6.5489,-6.5488,-6.5339,-6.5395,-6.5407,-6.5457,-6.547,-6.5493,-6.5543,-6.5533,-6.5578,-6.562,-6.5591,-6.5655,-6.5667,-6.5708,-6.5718,-6.5766,-6.5725,-6.5757,-6.5766,-6.5775,-6.5788,-6.5541,-6.5772,-6.5772,-6.5771,-6.577,-6.577,0,-6.5584,-6.5588,-6.5635,-6.5669,-6.5709,-6.5657,-6.568,-6.5716,-6.5774,-6.5789,-6.5826,-6.5888,-6.5934,-6.5923,-6.5965,-6.6006,-6.5984,-6.6018,-6.6015,-6.6017,-6.5822,-6.5799,-6.6036,-6.6036,-6.6036,-6.6036,-6.6035,-6.6035,-6.5716,-6.5808,-6.5793,-6.589,-6.5892,-6.5955,-6.5972,-6.5993,-6.6005,-6.6077,-6.6115,-6.6108,-6.6112,-6.6153,-6.6193,-6.6189,-6.6207,-6.6251,-6.6238,-6.6057,-6.6031,-6.6006,-6.5983,-6.6255,-6.6256,-6.6429,-6.643,-6.6432]}]]